Location: Cutler
(25.6150°N, 80.3110°W)
Time: 21:05:40
(UTC-05:00)

N. Korean satellite - Pass Details

Date: 11 November 2017
Orbit: 460 x 515 km, 97.2° (Epoch: 18 November)

Event Time Altitude Azimuth Distance (km) Brightness Sun altitude
Rises 18:19:02 0° 159° (SSE) 2,469 10.1 -10.5°
Reaches altitude 10° 18:21:06 10° 155° (SSE) 1,597 9.1 -11.0°
Maximum altitude 18:24:26 53° 77° (ENE) 570 6.5 -11.7°
Drops below altitude 10° 18:27:48 10° 360° (N) 1,611 9.1 -12.4°
Sets 18:29:53 0° 355° (N) 2,493 10.1 -12.9°
